Year,Month,Day,Hour,Minute,Value (Times are PST for temperature in C)
2018,08,07,00,00,19.80
2018,08,07,00,01,19.80
2018,08,07,00,02,19.80
2018,08,07,00,03,19.80
2018,08,07,00,04,19.70
2018,08,07,00,05,19.70
2018,08,07,00,06,19.70
2018,08,07,00,07,19.70
2018,08,07,00,08,19.70
2018,08,07,00,09,19.70
2018,08,07,00,10,19.70
2018,08,07,00,11,19.70
2018,08,07,00,12,19.70
2018,08,07,00,13,19.70
2018,08,07,00,14,19.70
2018,08,07,00,15,19.70
2018,08,07,00,16,19.70
2018,08,07,00,17,19.70
2018,08,07,00,18,19.70
2018,08,07,00,19,19.70
2018,08,07,00,20,19.70
2018,08,07,00,21,19.70
2018,08,07,00,22,19.70
2018,08,07,00,23,19.60
2018,08,07,00,24,19.60
2018,08,07,00,25,19.50
2018,08,07,00,26,19.50
2018,08,07,00,27,19.40
2018,08,07,00,28,19.40
2018,08,07,00,29,19.40
2018,08,07,00,30,19.30
2018,08,07,00,31,19.30
2018,08,07,00,32,19.30
2018,08,07,00,33,19.30
2018,08,07,00,34,19.30
2018,08,07,00,35,19.30
2018,08,07,00,36,19.30
2018,08,07,00,37,19.30
2018,08,07,00,38,19.20
2018,08,07,00,39,19.30
2018,08,07,00,40,19.30
2018,08,07,00,41,19.30
2018,08,07,00,42,19.30
2018,08,07,00,43,19.30
2018,08,07,00,44,19.30
2018,08,07,00,45,19.30
2018,08,07,00,46,19.30
2018,08,07,00,47,19.30
2018,08,07,00,48,19.30
2018,08,07,00,49,19.30
2018,08,07,00,50,19.30
2018,08,07,00,51,19.30
2018,08,07,00,52,19.30
2018,08,07,00,53,19.20
2018,08,07,00,54,19.20
2018,08,07,00,55,19.20
2018,08,07,00,56,19.20
2018,08,07,00,57,19.20
2018,08,07,00,58,19.20
2018,08,07,00,59,19.20
2018,08,07,01,00,19.20
2018,08,07,01,01,19.20
2018,08,07,01,02,19.20
2018,08,07,01,03,19.20
2018,08,07,01,04,19.20
2018,08,07,01,05,19.20
2018,08,07,01,06,19.20
2018,08,07,01,07,19.10
2018,08,07,01,08,19.10
2018,08,07,01,09,19.10
2018,08,07,01,10,19.10
2018,08,07,01,11,19.00
2018,08,07,01,12,19.00
2018,08,07,01,13,18.90
2018,08,07,01,14,18.90
2018,08,07,01,15,18.90
2018,08,07,01,16,18.80
2018,08,07,01,17,18.80
2018,08,07,01,18,18.80
2018,08,07,01,19,18.70
2018,08,07,01,20,18.70
2018,08,07,01,21,18.70
2018,08,07,01,22,18.60
2018,08,07,01,23,18.60
2018,08,07,01,24,18.60
2018,08,07,01,25,18.60
2018,08,07,01,26,18.60
2018,08,07,01,27,18.60
2018,08,07,01,28,18.50
2018,08,07,01,29,18.50
2018,08,07,01,30,18.50
2018,08,07,01,31,18.50
2018,08,07,01,32,18.50
2018,08,07,01,33,18.50
2018,08,07,01,34,18.50
2018,08,07,01,35,18.50
2018,08,07,01,36,18.50
2018,08,07,01,37,18.50
2018,08,07,01,38,18.50
2018,08,07,01,39,18.50
2018,08,07,01,40,18.40
2018,08,07,01,41,18.40
2018,08,07,01,42,18.50
2018,08,07,01,43,18.50
2018,08,07,01,44,18.50
2018,08,07,01,45,18.50
2018,08,07,01,46,18.50
2018,08,07,01,47,18.60
2018,08,07,01,48,18.60
2018,08,07,01,49,18.60
2018,08,07,01,50,18.60
2018,08,07,01,51,18.60
2018,08,07,01,52,18.60
2018,08,07,01,53,18.60
2018,08,07,01,54,18.60
2018,08,07,01,55,18.60
2018,08,07,01,56,18.60
2018,08,07,01,57,18.50
2018,08,07,01,58,18.50
2018,08,07,01,59,18.50
2018,08,07,02,00,18.50
2018,08,07,02,01,18.50
2018,08,07,02,02,18.50
2018,08,07,02,03,18.50
2018,08,07,02,04,18.50
2018,08,07,02,05,18.60
2018,08,07,02,06,18.60
2018,08,07,02,07,18.60
2018,08,07,02,08,18.60
2018,08,07,02,09,18.60
2018,08,07,02,10,18.60
2018,08,07,02,11,18.50
2018,08,07,02,12,18.50
2018,08,07,02,13,18.50
2018,08,07,02,14,18.50
2018,08,07,02,15,18.50
2018,08,07,02,16,18.50
2018,08,07,02,17,18.50
2018,08,07,02,18,18.40
2018,08,07,02,19,18.40
2018,08,07,02,20,18.40
2018,08,07,02,21,18.40
2018,08,07,02,22,18.40
2018,08,07,02,23,18.40
2018,08,07,02,24,18.40
2018,08,07,02,25,18.30
2018,08,07,02,26,18.30
2018,08,07,02,27,18.30
2018,08,07,02,28,18.30
2018,08,07,02,29,18.30
2018,08,07,02,30,18.30
2018,08,07,02,31,18.30
2018,08,07,02,32,18.30
2018,08,07,02,33,18.30
2018,08,07,02,34,18.30
2018,08,07,02,35,18.30
2018,08,07,02,36,18.30
2018,08,07,02,37,18.30
2018,08,07,02,38,18.30
2018,08,07,02,39,18.30
2018,08,07,02,40,18.30
2018,08,07,02,41,18.30
2018,08,07,02,42,18.30
2018,08,07,02,43,18.30
2018,08,07,02,44,18.30
2018,08,07,02,45,18.30
2018,08,07,02,46,18.30
2018,08,07,02,47,18.30
2018,08,07,02,48,18.30
2018,08,07,02,49,18.30
2018,08,07,02,50,18.20
2018,08,07,02,51,18.20
2018,08,07,02,52,18.20
2018,08,07,02,53,18.10
2018,08,07,02,54,18.10
2018,08,07,02,55,18.10
2018,08,07,02,56,18.10
2018,08,07,02,57,18.00
2018,08,07,02,58,18.00
2018,08,07,02,59,18.00
2018,08,07,03,00,18.00
2018,08,07,03,01,17.90
2018,08,07,03,02,17.90
2018,08,07,03,03,17.90
2018,08,07,03,04,17.90
2018,08,07,03,05,17.90
2018,08,07,03,06,17.90
2018,08,07,03,07,17.90
2018,08,07,03,08,17.80
2018,08,07,03,09,17.80
2018,08,07,03,10,17.80
2018,08,07,03,11,17.80
2018,08,07,03,12,17.80
2018,08,07,03,13,17.80
2018,08,07,03,14,17.80
2018,08,07,03,15,17.90
2018,08,07,03,16,17.80
2018,08,07,03,17,17.80
2018,08,07,03,18,17.80
2018,08,07,03,19,17.80
2018,08,07,03,20,17.80
2018,08,07,03,21,17.80
2018,08,07,03,22,17.90
2018,08,07,03,23,17.90
2018,08,07,03,24,17.90
2018,08,07,03,25,17.90
2018,08,07,03,26,17.90
2018,08,07,03,27,17.90
2018,08,07,03,28,17.90
2018,08,07,03,29,18.00
2018,08,07,03,30,18.00
2018,08,07,03,31,18.00
2018,08,07,03,32,18.00
2018,08,07,03,33,18.00
2018,08,07,03,34,18.00
2018,08,07,03,35,18.00
2018,08,07,03,36,18.00
2018,08,07,03,37,18.00
2018,08,07,03,38,18.00
2018,08,07,03,39,18.00
2018,08,07,03,40,18.00
2018,08,07,03,41,18.00
2018,08,07,03,42,18.00
2018,08,07,03,43,17.90
2018,08,07,03,44,17.90
2018,08,07,03,45,17.90
2018,08,07,03,46,17.90
2018,08,07,03,47,17.90
2018,08,07,03,48,17.80
2018,08,07,03,49,17.80
2018,08,07,03,50,17.70
2018,08,07,03,51,17.70
2018,08,07,03,52,17.70
2018,08,07,03,53,17.60
2018,08,07,03,54,17.60
2018,08,07,03,55,17.60
2018,08,07,03,56,17.50
2018,08,07,03,57,17.50
2018,08,07,03,58,17.50
2018,08,07,03,59,17.40
2018,08,07,04,00,17.40
2018,08,07,04,01,17.40
2018,08,07,04,02,17.40
2018,08,07,04,03,17.40
2018,08,07,04,04,17.40
2018,08,07,04,05,17.30
2018,08,07,04,06,17.30
2018,08,07,04,07,17.30
2018,08,07,04,08,17.30
2018,08,07,04,09,17.30
2018,08,07,04,10,17.30
2018,08,07,04,11,17.30
2018,08,07,04,12,17.30
2018,08,07,04,13,17.30
2018,08,07,04,14,17.30
2018,08,07,04,15,17.30
2018,08,07,04,16,17.30
2018,08,07,04,17,17.30
2018,08,07,04,18,17.30
2018,08,07,04,19,17.30
2018,08,07,04,20,17.20
2018,08,07,04,21,17.20
2018,08,07,04,22,17.20
2018,08,07,04,23,17.20
2018,08,07,04,24,17.20
2018,08,07,04,25,17.20
2018,08,07,04,26,17.10
2018,08,07,04,27,17.10
2018,08,07,04,28,17.10
2018,08,07,04,29,17.10
2018,08,07,04,30,17.00
2018,08,07,04,31,17.00
2018,08,07,04,32,17.00
2018,08,07,04,33,16.90
2018,08,07,04,34,16.90
2018,08,07,04,35,16.90
2018,08,07,04,36,16.90
2018,08,07,04,37,16.90
2018,08,07,04,38,16.90
2018,08,07,04,39,16.90
2018,08,07,04,40,16.80
2018,08,07,04,41,16.80
2018,08,07,04,42,16.80
2018,08,07,04,43,16.80
2018,08,07,04,44,16.80
2018,08,07,04,45,16.80
2018,08,07,04,46,16.80
2018,08,07,04,47,16.80
2018,08,07,04,48,16.80
2018,08,07,04,49,16.80
2018,08,07,04,50,16.80
2018,08,07,04,51,16.80
2018,08,07,04,52,16.80
2018,08,07,04,53,16.80
2018,08,07,04,54,16.80
2018,08,07,04,55,16.80
2018,08,07,04,56,16.80
2018,08,07,04,57,16.80
2018,08,07,04,58,16.80
2018,08,07,04,59,16.80
2018,08,07,05,00,16.80
2018,08,07,05,01,16.80
2018,08,07,05,02,16.80
2018,08,07,05,03,16.80
2018,08,07,05,04,16.80
2018,08,07,05,05,16.80
2018,08,07,05,06,16.80
2018,08,07,05,07,16.80
2018,08,07,05,08,16.80
2018,08,07,05,09,16.80
2018,08,07,05,10,16.80
2018,08,07,05,11,16.80
2018,08,07,05,12,16.80
2018,08,07,05,13,16.80
2018,08,07,05,14,16.70
2018,08,07,05,15,16.70
2018,08,07,05,16,16.70
2018,08,07,05,17,16.70
2018,08,07,05,18,16.70
2018,08,07,05,19,16.70
2018,08,07,05,20,16.70
2018,08,07,05,21,16.80
2018,08,07,05,22,16.80
2018,08,07,05,23,16.80
2018,08,07,05,24,16.80
2018,08,07,05,25,16.80
2018,08,07,05,26,16.80
2018,08,07,05,27,16.70
2018,08,07,05,28,16.70
2018,08,07,05,29,16.70
2018,08,07,05,30,16.70
2018,08,07,05,31,16.70
2018,08,07,05,32,16.60
2018,08,07,05,33,16.60
2018,08,07,05,34,16.60
2018,08,07,05,35,16.60
2018,08,07,05,36,16.60
2018,08,07,05,37,16.60
2018,08,07,05,38,16.60
2018,08,07,05,39,16.60
2018,08,07,05,40,16.60
2018,08,07,05,41,16.60
2018,08,07,05,42,16.60
2018,08,07,05,43,16.60
2018,08,07,05,44,16.50
2018,08,07,05,45,16.50
2018,08,07,05,46,16.50
2018,08,07,05,47,16.50
2018,08,07,05,48,16.50
2018,08,07,05,49,16.50
2018,08,07,05,50,16.50
2018,08,07,05,51,16.50
2018,08,07,05,52,16.40
2018,08,07,05,53,16.40
2018,08,07,05,54,16.40
2018,08,07,05,55,16.40
2018,08,07,05,56,16.40
2018,08,07,05,57,16.40
2018,08,07,05,58,16.40
2018,08,07,05,59,16.40
2018,08,07,06,00,16.30
2018,08,07,06,01,16.30
2018,08,07,06,02,16.30
2018,08,07,06,03,16.30
2018,08,07,06,04,16.30
2018,08,07,06,05,16.30
2018,08,07,06,06,16.30
2018,08,07,06,07,16.30
2018,08,07,06,08,16.20
2018,08,07,06,09,16.20
2018,08,07,06,10,16.20
2018,08,07,06,11,16.20
2018,08,07,06,12,16.20
2018,08,07,06,13,16.20
2018,08,07,06,14,16.20
2018,08,07,06,15,16.20
2018,08,07,06,16,16.20
2018,08,07,06,17,16.20
2018,08,07,06,18,16.10
2018,08,07,06,19,16.10
2018,08,07,06,20,16.10
2018,08,07,06,21,16.10
2018,08,07,06,22,16.10
2018,08,07,06,23,16.10
2018,08,07,06,24,16.10
2018,08,07,06,25,16.10
2018,08,07,06,26,16.10
2018,08,07,06,27,16.10
2018,08,07,06,28,16.10
2018,08,07,06,29,16.10
2018,08,07,06,30,16.10
2018,08,07,06,31,16.10
2018,08,07,06,32,16.10
2018,08,07,06,33,16.10
2018,08,07,06,34,16.10
2018,08,07,06,35,16.10
2018,08,07,06,36,16.10
2018,08,07,06,37,16.10
2018,08,07,06,38,16.10
2018,08,07,06,39,16.10
2018,08,07,06,40,16.10
2018,08,07,06,41,16.10
2018,08,07,06,42,16.10
2018,08,07,06,43,16.10
2018,08,07,06,44,16.10
2018,08,07,06,45,16.10
2018,08,07,06,46,16.10
2018,08,07,06,47,16.10
2018,08,07,06,48,16.10
2018,08,07,06,49,16.10
2018,08,07,06,50,16.00
2018,08,07,06,51,16.00
2018,08,07,06,52,16.00
2018,08,07,06,53,16.00
2018,08,07,06,54,16.00
2018,08,07,06,55,16.00
2018,08,07,06,56,16.10
2018,08,07,06,57,16.10
2018,08,07,06,58,16.10
2018,08,07,06,59,16.10
2018,08,07,07,00,16.10
2018,08,07,07,01,16.10
2018,08,07,07,02,16.10
2018,08,07,07,03,16.20
2018,08,07,07,04,16.20
2018,08,07,07,05,16.20
2018,08,07,07,06,16.20
2018,08,07,07,07,16.20
2018,08,07,07,08,16.20
2018,08,07,07,09,16.20
2018,08,07,07,10,16.30
2018,08,07,07,11,16.30
2018,08,07,07,12,16.30
2018,08,07,07,13,16.30
2018,08,07,07,14,16.30
2018,08,07,07,15,16.40
2018,08,07,07,16,16.40
2018,08,07,07,17,16.50
2018,08,07,07,18,16.50
2018,08,07,07,19,16.60
2018,08,07,07,20,16.70
2018,08,07,07,21,16.70
2018,08,07,07,22,16.80
2018,08,07,07,23,16.90
2018,08,07,07,24,17.00
2018,08,07,07,25,17.10
2018,08,07,07,26,17.20
2018,08,07,07,27,17.30
2018,08,07,07,28,17.40
2018,08,07,07,29,17.40
2018,08,07,07,30,17.60
2018,08,07,07,31,17.70
2018,08,07,07,32,17.80
2018,08,07,07,33,18.00
2018,08,07,07,34,18.10
2018,08,07,07,35,18.20
2018,08,07,07,36,18.30
2018,08,07,07,37,18.40
2018,08,07,07,38,18.50
2018,08,07,07,39,18.50
2018,08,07,07,40,18.60
2018,08,07,07,41,18.70
2018,08,07,07,42,18.80
2018,08,07,07,43,18.90
2018,08,07,07,44,19.00
2018,08,07,07,45,19.10
2018,08,07,07,46,19.20
2018,08,07,07,47,19.40
2018,08,07,07,48,19.50
2018,08,07,07,49,19.60
2018,08,07,07,50,19.80
2018,08,07,07,51,19.90
2018,08,07,07,52,20.00
2018,08,07,07,53,20.20
2018,08,07,07,54,20.30
2018,08,07,07,55,20.40
2018,08,07,07,56,20.50
2018,08,07,07,57,20.50
2018,08,07,07,58,20.60
2018,08,07,07,59,20.70
2018,08,07,08,00,20.70
2018,08,07,08,01,20.80
2018,08,07,08,02,20.80
2018,08,07,08,03,20.90
2018,08,07,08,04,21.00
2018,08,07,08,05,21.00
2018,08,07,08,06,21.10
2018,08,07,08,07,21.20
2018,08,07,08,08,21.20
2018,08,07,08,09,21.30
2018,08,07,08,10,21.30
2018,08,07,08,11,21.40
2018,08,07,08,12,21.50
2018,08,07,08,13,21.50
2018,08,07,08,14,21.60
2018,08,07,08,15,21.70
2018,08,07,08,16,21.80
2018,08,07,08,17,21.80
2018,08,07,08,18,21.90
2018,08,07,08,19,22.00
2018,08,07,08,20,22.00
2018,08,07,08,21,22.10
2018,08,07,08,22,22.20
2018,08,07,08,23,22.20
2018,08,07,08,24,22.30
2018,08,07,08,25,22.40
2018,08,07,08,26,22.40
2018,08,07,08,27,22.50
2018,08,07,08,28,22.50
2018,08,07,08,29,22.60
2018,08,07,08,30,22.60
2018,08,07,08,31,22.70
2018,08,07,08,32,22.70
2018,08,07,08,33,22.90
2018,08,07,08,34,22.90
2018,08,07,08,35,23.00
2018,08,07,08,36,23.00
2018,08,07,08,37,23.10
2018,08,07,08,38,23.00
2018,08,07,08,39,23.00
2018,08,07,08,40,23.00
2018,08,07,08,41,22.90
2018,08,07,08,42,22.90
2018,08,07,08,43,23.00
2018,08,07,08,44,23.10
2018,08,07,08,45,23.20
2018,08,07,08,46,23.20
2018,08,07,08,47,23.30
2018,08,07,08,48,23.30
2018,08,07,08,49,23.40
2018,08,07,08,50,23.40
2018,08,07,08,51,23.50
2018,08,07,08,52,23.50
2018,08,07,08,53,23.60
2018,08,07,08,54,23.60
2018,08,07,08,55,23.70
2018,08,07,08,56,23.70
2018,08,07,08,57,23.70
2018,08,07,08,58,23.70
2018,08,07,08,59,23.70
2018,08,07,09,00,23.60
2018,08,07,09,01,23.50
2018,08,07,09,02,23.50
2018,08,07,09,03,23.50
2018,08,07,09,04,23.50
2018,08,07,09,05,23.60
2018,08,07,09,06,23.60
2018,08,07,09,07,23.70
2018,08,07,09,08,23.70
2018,08,07,09,09,23.70
2018,08,07,09,10,23.60
2018,08,07,09,11,23.50
2018,08,07,09,12,23.40
2018,08,07,09,13,23.30
2018,08,07,09,14,23.20
2018,08,07,09,15,23.10
2018,08,07,09,16,23.00
2018,08,07,09,17,22.90
2018,08,07,09,18,22.80
2018,08,07,09,19,22.80
2018,08,07,09,20,22.80
2018,08,07,09,21,22.80
2018,08,07,09,22,22.80
2018,08,07,09,23,22.90
2018,08,07,09,24,22.90
2018,08,07,09,25,22.90
2018,08,07,09,26,22.90
2018,08,07,09,27,22.90
2018,08,07,09,28,22.90
2018,08,07,09,29,22.90
2018,08,07,09,30,22.90
2018,08,07,09,31,22.90
2018,08,07,09,32,22.80
2018,08,07,09,33,22.80
2018,08,07,09,34,22.80
2018,08,07,09,35,22.80
2018,08,07,09,36,22.80
2018,08,07,09,37,22.70
2018,08,07,09,38,22.70
2018,08,07,09,39,22.60
2018,08,07,09,40,22.60
2018,08,07,09,41,22.60
2018,08,07,09,42,22.60
2018,08,07,09,43,22.60
2018,08,07,09,44,22.70
2018,08,07,09,45,22.70
2018,08,07,09,46,22.70
2018,08,07,09,47,22.70
2018,08,07,09,48,22.60
2018,08,07,09,49,22.60
2018,08,07,09,50,22.50
2018,08,07,09,51,22.50
2018,08,07,09,52,22.40
2018,08,07,09,53,22.50
2018,08,07,09,54,22.50
2018,08,07,09,55,22.60
2018,08,07,09,56,22.70
2018,08,07,09,57,22.70
2018,08,07,09,58,22.80
2018,08,07,09,59,22.80
2018,08,07,10,00,22.90
2018,08,07,10,01,22.90
2018,08,07,10,02,23.00
2018,08,07,10,03,23.00
2018,08,07,10,04,23.10
2018,08,07,10,05,23.10
2018,08,07,10,06,23.10
2018,08,07,10,07,23.10
2018,08,07,10,08,23.10
2018,08,07,10,09,23.10
2018,08,07,10,10,23.10
2018,08,07,10,11,23.10
2018,08,07,10,12,23.10
2018,08,07,10,13,23.20
2018,08,07,10,14,23.20
2018,08,07,10,15,23.20
2018,08,07,10,16,23.30
2018,08,07,10,17,23.30
2018,08,07,10,18,23.30
2018,08,07,10,19,23.40
2018,08,07,10,20,23.50
2018,08,07,10,21,23.60
2018,08,07,10,22,23.60
2018,08,07,10,23,23.50
2018,08,07,10,24,23.40
2018,08,07,10,25,23.40
2018,08,07,10,26,23.40
2018,08,07,10,27,23.30
2018,08,07,10,28,23.30
2018,08,07,10,29,23.40
2018,08,07,10,30,23.40
2018,08,07,10,31,23.40
2018,08,07,10,32,23.40
2018,08,07,10,33,23.50
2018,08,07,10,34,23.50
2018,08,07,10,35,23.60
2018,08,07,10,36,23.70
2018,08,07,10,37,23.80
2018,08,07,10,38,23.90
2018,08,07,10,39,24.10
2018,08,07,10,40,24.20
2018,08,07,10,41,24.30
2018,08,07,10,42,24.30
2018,08,07,10,43,24.30
2018,08,07,10,44,24.40
2018,08,07,10,45,24.40
2018,08,07,10,46,24.50
2018,08,07,10,47,24.50
2018,08,07,10,48,24.50
2018,08,07,10,49,24.50
2018,08,07,10,50,24.50
2018,08,07,10,51,24.50
2018,08,07,10,52,24.60
2018,08,07,10,53,24.60
2018,08,07,10,54,24.50
2018,08,07,10,55,24.40
2018,08,07,10,56,24.40
2018,08,07,10,57,24.40
2018,08,07,10,58,24.40
2018,08,07,10,59,24.40
2018,08,07,11,00,24.40
2018,08,07,11,01,24.40
2018,08,07,11,02,24.50
2018,08,07,11,03,24.50
2018,08,07,11,04,24.60
2018,08,07,11,05,24.70
2018,08,07,11,06,24.70
2018,08,07,11,07,24.70
2018,08,07,11,08,24.80
2018,08,07,11,09,24.80
2018,08,07,11,10,24.80
2018,08,07,11,11,24.80
2018,08,07,11,12,24.80
2018,08,07,11,13,24.80
2018,08,07,11,14,24.90
2018,08,07,11,15,25.00
2018,08,07,11,16,25.20
2018,08,07,11,17,25.30
2018,08,07,11,18,25.30
2018,08,07,11,19,25.40
2018,08,07,11,20,25.40
2018,08,07,11,21,25.40
2018,08,07,11,22,25.40
2018,08,07,11,23,25.30
2018,08,07,11,24,25.30
2018,08,07,11,25,25.30
2018,08,07,11,26,25.40
2018,08,07,11,27,25.40
2018,08,07,11,28,25.40
2018,08,07,11,29,25.40
2018,08,07,11,30,25.50
2018,08,07,11,31,25.60
2018,08,07,11,32,25.60
2018,08,07,11,33,25.70
2018,08,07,11,34,25.60
2018,08,07,11,35,25.60
2018,08,07,11,36,25.60
2018,08,07,11,37,25.60
2018,08,07,11,38,25.70
2018,08,07,11,39,25.80
2018,08,07,11,40,25.90
2018,08,07,11,41,26.00
2018,08,07,11,42,26.10
2018,08,07,11,43,26.20
2018,08,07,11,44,26.30
2018,08,07,11,45,26.40
2018,08,07,11,46,26.40
2018,08,07,11,47,26.40
2018,08,07,11,48,26.40
2018,08,07,11,49,26.40
2018,08,07,11,50,26.40
2018,08,07,11,51,26.40
2018,08,07,11,52,26.40
2018,08,07,11,53,26.30
2018,08,07,11,54,26.30
2018,08,07,11,55,26.30
2018,08,07,11,56,26.40
2018,08,07,11,57,26.50
2018,08,07,11,58,26.60
2018,08,07,11,59,26.60
2018,08,07,12,00,26.60
2018,08,07,12,01,26.60
2018,08,07,12,02,26.50
2018,08,07,12,03,26.40
2018,08,07,12,04,26.40
2018,08,07,12,05,26.30
2018,08,07,12,06,26.30
2018,08,07,12,07,26.20
2018,08,07,12,08,26.20
2018,08,07,12,09,26.00
2018,08,07,12,10,25.90
2018,08,07,12,11,25.80
2018,08,07,12,12,25.80
2018,08,07,12,13,25.70
2018,08,07,12,14,25.70
2018,08,07,12,15,25.70
2018,08,07,12,16,25.70
2018,08,07,12,17,25.70
2018,08,07,12,18,25.80
2018,08,07,12,19,25.80
2018,08,07,12,20,25.70
2018,08,07,12,21,25.70
2018,08,07,12,22,25.70
2018,08,07,12,23,25.70
2018,08,07,12,24,25.80
2018,08,07,12,25,25.80
2018,08,07,12,26,25.90
2018,08,07,12,27,26.00
2018,08,07,12,28,26.10
2018,08,07,12,29,26.20
2018,08,07,12,30,26.20
2018,08,07,12,31,26.20
2018,08,07,12,32,26.20
2018,08,07,12,33,26.30
2018,08,07,12,34,26.30
2018,08,07,12,35,26.40
2018,08,07,12,36,26.30
2018,08,07,12,37,26.30
2018,08,07,12,38,26.20
2018,08,07,12,39,26.20
2018,08,07,12,40,26.20
2018,08,07,12,41,26.20
2018,08,07,12,42,26.30
2018,08,07,12,43,26.30
2018,08,07,12,44,26.40
2018,08,07,12,45,26.40
2018,08,07,12,46,26.50
2018,08,07,12,47,26.70
2018,08,07,12,48,26.80
2018,08,07,12,49,26.90
2018,08,07,12,50,27.10
2018,08,07,12,51,27.20
2018,08,07,12,52,27.30
2018,08,07,12,53,27.40
2018,08,07,12,54,27.40
2018,08,07,12,55,27.40
2018,08,07,12,56,27.30
2018,08,07,12,57,27.10
2018,08,07,12,58,27.00
2018,08,07,12,59,26.90
2018,08,07,13,00,26.90
2018,08,07,13,01,26.80
2018,08,07,13,02,26.80
2018,08,07,13,03,26.80
2018,08,07,13,04,26.80
2018,08,07,13,05,26.80
2018,08,07,13,06,26.90
2018,08,07,13,07,26.90
2018,08,07,13,08,26.90
2018,08,07,13,09,26.90
2018,08,07,13,10,26.90
2018,08,07,13,11,26.90
2018,08,07,13,12,27.00
2018,08,07,13,13,27.00
2018,08,07,13,14,27.10
2018,08,07,13,15,27.10
2018,08,07,13,16,27.10
2018,08,07,13,17,27.00
2018,08,07,13,18,26.90
2018,08,07,13,19,26.90
2018,08,07,13,20,26.90
2018,08,07,13,21,26.90
2018,08,07,13,22,26.90
2018,08,07,13,23,26.90
2018,08,07,13,24,26.80
2018,08,07,13,25,26.70
2018,08,07,13,26,26.70
2018,08,07,13,27,26.70
2018,08,07,13,28,26.80
2018,08,07,13,29,26.80
2018,08,07,13,30,26.80
2018,08,07,13,31,26.80
2018,08,07,13,32,26.80
2018,08,07,13,33,26.80
2018,08,07,13,34,26.90
2018,08,07,13,35,26.90
2018,08,07,13,36,26.90
2018,08,07,13,37,27.00
2018,08,07,13,38,27.10
2018,08,07,13,39,27.20
2018,08,07,13,40,27.30
2018,08,07,13,41,27.30
2018,08,07,13,42,27.30
2018,08,07,13,43,27.30
2018,08,07,13,44,27.30
2018,08,07,13,45,27.30
2018,08,07,13,46,27.30
2018,08,07,13,47,27.30
2018,08,07,13,48,27.30
2018,08,07,13,49,27.30
2018,08,07,13,50,27.40
2018,08,07,13,51,27.40
2018,08,07,13,52,27.40
2018,08,07,13,53,27.40
2018,08,07,13,54,27.30
2018,08,07,13,55,27.40
2018,08,07,13,56,27.40
2018,08,07,13,57,27.50
2018,08,07,13,58,27.50
2018,08,07,13,59,27.50
2018,08,07,14,00,27.50
2018,08,07,14,01,27.50
2018,08,07,14,02,27.60
2018,08,07,14,03,27.60
2018,08,07,14,04,27.70
2018,08,07,14,05,27.80
2018,08,07,14,06,27.80
2018,08,07,14,07,27.90
2018,08,07,14,08,27.90
2018,08,07,14,09,28.00
2018,08,07,14,10,28.10
2018,08,07,14,11,28.20
2018,08,07,14,12,28.30
2018,08,07,14,13,28.30
2018,08,07,14,14,28.30
2018,08,07,14,15,28.40
2018,08,07,14,16,28.50
2018,08,07,14,17,28.60
2018,08,07,14,18,28.60
2018,08,07,14,19,28.40
2018,08,07,14,20,28.30
2018,08,07,14,21,28.20
2018,08,07,14,22,28.20
2018,08,07,14,23,28.20
2018,08,07,14,24,28.20
2018,08,07,14,25,28.20
2018,08,07,14,26,28.20
2018,08,07,14,27,28.20
2018,08,07,14,28,28.20
2018,08,07,14,29,28.40
2018,08,07,14,30,28.50
2018,08,07,14,31,28.60
2018,08,07,14,32,28.70
2018,08,07,14,33,28.80
2018,08,07,14,34,29.00
2018,08,07,14,35,29.10
2018,08,07,14,36,29.10
2018,08,07,14,37,29.10
2018,08,07,14,38,29.10
2018,08,07,14,39,29.00
2018,08,07,14,40,28.80
2018,08,07,14,41,28.70
2018,08,07,14,42,28.60
2018,08,07,14,43,28.60
2018,08,07,14,44,28.60
2018,08,07,14,45,28.70
2018,08,07,14,46,28.70
2018,08,07,14,47,28.70
2018,08,07,14,48,28.70
2018,08,07,14,49,28.70
2018,08,07,14,50,28.70
2018,08,07,14,51,28.80
2018,08,07,14,52,28.80
2018,08,07,14,53,28.80
2018,08,07,14,54,28.80
2018,08,07,14,55,28.80
2018,08,07,14,56,28.80
2018,08,07,14,57,28.90
2018,08,07,14,58,29.00
2018,08,07,14,59,29.00
2018,08,07,15,00,29.00
2018,08,07,15,01,29.00
2018,08,07,15,02,28.90
2018,08,07,15,03,28.90
2018,08,07,15,04,28.90
2018,08,07,15,05,28.90
2018,08,07,15,06,28.90
2018,08,07,15,07,28.90
2018,08,07,15,08,28.90
2018,08,07,15,09,28.90
2018,08,07,15,10,28.90
2018,08,07,15,11,28.90
2018,08,07,15,12,28.90
2018,08,07,15,13,28.90
2018,08,07,15,14,28.90
2018,08,07,15,15,28.90
2018,08,07,15,16,28.90
2018,08,07,15,17,28.90
2018,08,07,15,18,28.80
2018,08,07,15,19,28.80
2018,08,07,15,20,28.90
2018,08,07,15,21,28.90
2018,08,07,15,22,28.90
2018,08,07,15,23,29.00
2018,08,07,15,24,29.10
2018,08,07,15,25,29.20
2018,08,07,15,26,29.30
2018,08,07,15,27,29.40
2018,08,07,15,28,29.40
2018,08,07,15,29,29.40
2018,08,07,15,30,29.40
2018,08,07,15,31,29.40
2018,08,07,15,32,29.30
2018,08,07,15,33,29.30
2018,08,07,15,34,29.30
2018,08,07,15,35,29.30
2018,08,07,15,36,29.30
2018,08,07,15,37,29.40
2018,08,07,15,38,29.50
2018,08,07,15,39,29.50
2018,08,07,15,40,29.50
2018,08,07,15,41,29.50
2018,08,07,15,42,29.50
2018,08,07,15,43,29.50
2018,08,07,15,44,29.40
2018,08,07,15,45,29.40
2018,08,07,15,46,29.50
2018,08,07,15,47,29.60
2018,08,07,15,48,29.60
2018,08,07,15,49,29.60
2018,08,07,15,50,29.60
2018,08,07,15,51,29.60
2018,08,07,15,52,29.50
2018,08,07,15,53,29.60
2018,08,07,15,54,29.60
2018,08,07,15,55,29.60
2018,08,07,15,56,29.60
2018,08,07,15,57,29.60
2018,08,07,15,58,29.60
2018,08,07,15,59,29.60
2018,08,07,16,00,29.60
2018,08,07,16,01,29.50
2018,08,07,16,02,29.50
2018,08,07,16,03,29.50
2018,08,07,16,04,29.50
2018,08,07,16,05,29.60
2018,08,07,16,06,29.60
2018,08,07,16,07,29.60
2018,08,07,16,08,29.60
2018,08,07,16,09,29.60
2018,08,07,16,10,29.60
2018,08,07,16,11,29.60
2018,08,07,16,12,29.60
2018,08,07,16,13,29.60
2018,08,07,16,14,29.60
2018,08,07,16,15,29.60
2018,08,07,16,16,29.60
2018,08,07,16,17,29.60
2018,08,07,16,18,29.60
2018,08,07,16,19,29.50
2018,08,07,16,20,29.60
2018,08,07,16,21,29.60
2018,08,07,16,22,29.60
2018,08,07,16,23,29.70
2018,08,07,16,24,29.80
2018,08,07,16,25,29.80
2018,08,07,16,26,29.80
2018,08,07,16,27,29.80
2018,08,07,16,28,29.80
2018,08,07,16,29,29.90
2018,08,07,16,30,29.90
2018,08,07,16,31,29.90
2018,08,07,16,32,29.90
2018,08,07,16,33,29.80
2018,08,07,16,34,29.80
2018,08,07,16,35,29.80
2018,08,07,16,36,29.70
2018,08,07,16,37,29.70
2018,08,07,16,38,29.60
2018,08,07,16,39,29.60
2018,08,07,16,40,29.60
2018,08,07,16,41,29.60
2018,08,07,16,42,29.60
2018,08,07,16,43,29.60
2018,08,07,16,44,29.60
2018,08,07,16,45,29.50
2018,08,07,16,46,29.50
2018,08,07,16,47,29.50
2018,08,07,16,48,29.50
2018,08,07,16,49,29.60
2018,08,07,16,50,29.60
2018,08,07,16,51,29.70
2018,08,07,16,52,29.80
2018,08,07,16,53,29.90
2018,08,07,16,54,29.90
2018,08,07,16,55,29.90
2018,08,07,16,56,29.90
2018,08,07,16,57,30.00
2018,08,07,16,58,30.00
2018,08,07,16,59,30.10
2018,08,07,17,00,30.10
2018,08,07,17,01,30.10
2018,08,07,17,02,30.10
2018,08,07,17,03,30.00
2018,08,07,17,04,30.00
2018,08,07,17,05,30.00
2018,08,07,17,06,29.90
2018,08,07,17,07,29.80
2018,08,07,17,08,29.70
2018,08,07,17,09,29.70
2018,08,07,17,10,29.60
2018,08,07,17,11,29.60
2018,08,07,17,12,29.60
2018,08,07,17,13,29.50
2018,08,07,17,14,29.50
2018,08,07,17,15,29.50
2018,08,07,17,16,29.50
2018,08,07,17,17,29.50
2018,08,07,17,18,29.50
2018,08,07,17,19,29.40